Temp
8 8 7 7 7 7 7 7 7 8 8 8 8 8 9 9 9 9 9 8 8 8 8 7 7 7 7 7 7 7 7 7 7
7 7 7 7 7 7 7 7 7 7 7 8 8 8 8 8 9 9 9 9 8 8 8 8 7 7 7 7 7 7 7 7 6
7 7 7 7 7 7 7 7 7 7 7 7 8 8 8 8 8 8 8 9 9 8 8 7 7 7 7 7 5 6 6 6 6
7 7 7 7 7 7 7 7 7 6 7 7 7 7 7 8 7 8 8 8 8 8 8 8 7 7 7 7 6 6 5 6 5
7 7 7 7 7 7 7 7 7 7 6 6 7 7 7 7 7 7 7 7 7 8 8 8 8 7 7 7 6 6 6 6 6
7 7 7 7 7 7 7 7 6 6 6 7 7 7 6 6 7 7 7 7 7 7 7 7 8 7 7 7 7 6 6 6 6
6 7 6 7 7 7 7 7 7 7 6 7 6 6 6 6 6 6 6 7 7 7 7 7 7 7 7 7 7 7 6 6 6
6 6 7 6 7 7 7 7 7 6 6 6 6 6 6 6 6 6 6 6 6 7 7 7 7 7 7 7 7 6 6 6 6
6 6 6 6 6 6 6 7 7 6 6 6 6 6 6 6 6 6 6 6 6 6 6 6 7 7 7 7 7 6 6 6 6
6 6 6 7 6 6 6 6 6 6 6 6 6 6 6 6 6 6 5 5 5 5 6 6 6 7 7 7 7 7 6 6 6
6 6 6 6 6 6 6 6 6 6 6 6 6 6 6 6 6 5 5 5 5 5 5 5 6 6 6 7 7 7 7 6 6
6 6 6 6 6 6 6 6 6 6 6 6 7 6 6 6 6 6 5 5 5 5 5 5 5 5 5 6 6 7 6 6 6
4 5 5 5 6 6 6 6 6 6 6 6 6 6 6 6 6 6 6 6 5 5 5 5 5 5 5 5 5 5 6 6 6
3 4 4 5 5 5 5 5 6 6 6 6 6 6 6 6 6 6 6 6 6 6 5 6 6 6 5 5 5 5 5 6 6
4 4 4 4 4 4 5 5 5 6 6 6 6 6 7 6 6 6 6 6 6 6 6 6 6 6 6 6 6 5 5 4 5
2 3 3 4 4 4 5 5 5 6 6 6 6 6 6 6 6 6 6 6 6 6 6 6 6 6 6 6 6 6 5 5 5
3 3 4 4 4 4 5 5 5 6 6 6 6 6 6 7 7 6 6 6 6 7 6 7 6 7 6 7 7 6 6 5 5
3 3 4 4 4 4 4 5 5 5 5 5 5 6 6 7 7 7 7 6 6 6 7 7 7 7 6 6 6 7 7 6 5
3 3 3 3 4 4 4 4 4 5 5 5 5 5 6 6 6 6 6 6 7 6 6 6 7 6 6 6 6 6 6 7 6
2 2 3 3 3 3 4 4 4 4 4 5 5 5 5 5 5 6 6 6 6 6 6 6 6 6 6 6 6 7 7 6 6
Height
3152 3154 3156 3158 3159 3159 3160 3161 3161 3162 3163 3164 3163 3164 3164 3164 3163 3162 3161 3160 3158 3157 3157 3156 3155 3154 3153 3152 3150 3148 3148 3148 3148
3153 3154 3156 3158 3160 3160 3161 3161 3162 3163 3163 3164 3164 3164 3164 3165 3165 3165 3164 3163 3162 3159 3158 3158 3157 3156 3155 3154 3153 3151 3149 3149 3149
3152 3154 3156 3158 3160 3161 3162 3162 3163 3164 3165 3165 3166 3165 3165 3165 3165 3165 3165 3164 3163 3162 3160 3159 3159 3157 3157 3156 3155 3153 3152 3150 3150
3151 3153 3155 3157 3159 3161 3162 3163 3164 3165 3165 3166 3167 3167 3167 3166 3166 3166 3165 3165 3165 3164 3162 3160 3159 3159 3158 3157 3156 3155 3154 3153 3151
3150 3152 3154 3156 3159 3161 3162 3164 3165 3165 3166 3166 3167 3167 3167 3167 3167 3167 3167 3167 3166 3166 3164 3162 3161 3160 3158 3158 3158 3157 3156 3154 3153
3150 3152 3153 3155 3156 3159 3161 3163 3164 3165 3166 3167 3167 3168 3168 3168 3168 3168 3168 3168 3167 3166 3165 3164 3163 3162 3161 3159 3158 3157 3157 3156 3155
3147 3149 3151 3153 3155 3157 3159 3162 3164 3165 3166 3167 3167 3167 3168 3169 3169 3169 3168 3169 3168 3168 3167 3165 3164 3164 3163 3162 3161 3158 3158 3157 3156
3144 3147 3149 3151 3153 3156 3158 3159 3162 3164 3166 3166 3167 3167 3168 3168 3169 3169 3168 3169 3169 3168 3167 3166 3166 3165 3165 3164 3163 3161 3159 3158 3157
3141 3144 3147 3149 3150 3152 3155 3158 3160 3162 3164 3165 3166 3167 3167 3167 3168 3169 3169 3169 3168 3168 3167 3167 3166 3166 3165 3165 3164 3163 3162 3161 3159
3137 3141 3145 3146 3147 3150 3152 3154 3157 3160 3161 3163 3164 3165 3166 3167 3166 3167 3168 3168 3169 3169 3168 3167 3166 3165 3165 3166 3165 3164 3163 3162 3161
3131 3136 3139 3142 3143 3146 3148 3151 3154 3156 3157 3159 3161 3162 3163 3164 3165 3164 3166 3167 3167 3167 3167 3167 3166 3166 3165 3165 3165 3164 3163 3163 3162
3125 3129 3133 3136 3139 3142 3145 3147 3149 3151 3153 3155 3157 3159 3160 3161 3162 3162 3162 3164 3165 3165 3164 3164 3165 3165 3165 3164 3164 3164 3164 3163 3163
3120 3123 3126 3129 3134 3137 3140 3142 3145 3147 3149 3152 3153 3154 3156 3158 3158 3159 3160 3160 3162 3163 3163 3162 3162 3163 3164 3163 3164 3163 3163 3163 3161
3116 3117 3121 3124 3128 3132 3134 3137 3140 3142 3145 3147 3148 3149 3151 3153 3154 3155 3155 3156 3158 3160 3160 3160 3160 3160 3161 3162 3162 3162 3161 3161 3161
3108 3112 3115 3120 3122 3127 3129 3132 3135 3137 3140 3141 3143 3144 3146 3148 3149 3151 3151 3153 3154 3155 3155 3156 3158 3158 3158 3159 3159 3161 3161 3160 3160
3104 3107 3110 3114 3117 3120 3124 3126 3129 3131 3134 3135 3137 3138 3141 3142 3144 3146 3147 3147 3149 3150 3151 3151 3152 3154 3156 3156 3156 3157 3159 3159 3158
3099 3102 3106 3109 3112 3115 3117 3121 3123 3125 3127 3129 3131 3132 3135 3136 3138 3140 3142 3143 3144 3144 3145 3147 3147 3149 3151 3152 3153 3154 3154 3156 3156
3092 3096 3099 3102 3105 3107 3111 3114 3116 3118 3121 3123 3126 3127 3126 3131 3132 3133 3135 3138 3138 3139 3141 3141 3143 3144 3146 3147 3149 3149 3150 3151 3152
3084 3088 3092 3094 3097 3100 3103 3107 3109 3111 3115 3117 3119 3120 3122 3123 3125 3127 3128 3131 3132 3134 3134 3135 3138 3139 3140 3141 3142 3143 3144 3145 3146
3076 3080 3083 3085 3089 3093 3096 3098 3101 3103 3107 3109 3112 3114 3114 3116 3116 3118 3120 3124 3125 3127 3128 3129 3130 3132 3134 3135 3135 3137 3139 3138 3139
Wind_Speed
10 11 12 11 11 10 8 6 5 4 4 4 4 4 5 5 7 9 9 10 10 10 10 10 10 11 12 12 13 13 13 13 12
9 10 11 12 11 9 7 6 4 3 4 5 5 4 4 4 6 7 8 8 8 9 9 9 10 10 11 12 13 14 14 13 11
11 10 10 10 11 9 7 5 3 3 2 3 3 4 4 4 4 5 6 6 5 7 8 8 8 9 10 11 14 13 14 14 12
14 12 11 10 11 10 8 6 4 2 2 4 4 5 5 5 4 4 4 4 5 5 6 7 6 7 9 8 9 12 12 13 12
16 14 12 11 10 10 9 8 5 5 4 3 4 5 6 5 5 5 4 4 4 4 4 5 5 4 6 7 8 9 10 12 11
17 16 15 14 12 11 10 9 7 7 5 3 2 4 5 7 8 6 6 5 4 3 3 3 4 3 3 5 6 7 7 9 11
20 20 18 17 15 14 12 11 10 10 6 2 2 3 4 4 5 7 7 6 6 6 5 5 4 4 3 4 3 5 5 6 8
23 23 22 20 19 17 15 13 12 12 8 4 3 4 5 5 4 4 5 6 6 6 8 8 8 6 5 5 4 4 3 4 5
26 25 24 23 22 21 18 17 15 14 12 9 8 8 7 8 7 4 4 3 4 5 5 6 7 8 8 7 6 6 5 5 3
29 23 26 28 25 23 22 20 17 17 15 14 13 12 12 11 10 9 7 6 6 4 5 6 7 7 8 10 9 8 7 6 5
35 34 33 30 27 26 25 23 21 21 20 18 17 16 15 15 14 14 13 11 10 9 8 6 7 7 6 7 10 10 8 8 8
34 33 32 30 29 28 28 27 25 24 23 22 20 20 21 19 18 16 16 15 14 13 13 10 8 8 7 7 8 10 10 9 9
33 33 32 31 32 32 31 30 28 26 25 25 24 25 25 22 20 19 18 17 17 17 16 14 13 10 9 8 9 9 9 11 11
32 32 32 31 31 30 30 30 30 29 28 28 29 28 26 23 22 21 20 20 19 19 18 17 16 15 14 13 11 9 11 10 10
30 32 33 33 33 32 32 32 31 31 31 32 31 29 26 25 24 23 22 22 21 22 22 21 18 17 16 16 14 13 11 13 11
33 32 32 33 33 33 33 33 34 34 34 33 31 29 29 27 26 26 25 24 24 24 24 22 22 21 20 19 17 16 14 15 15
36 38 38 36 36 36 35 36 36 36 34 33 31 31 31 30 29 28 27 27 27 26 26 25 24 23 22 21 20 20 18 18 19
38 38 38 38 38 38 37 37 36 35 34 34 33 33 34 30 30 31 30 29 29 28 26 26 25 25 24 24 22 23 22 21 21
39 39 39 39 39 39 38 38 36 36 35 35 35 35 34 33 34 32 31 30 31 28 28 27 26 27 27 26 26 26 26 25 25
39 39 39 39 39 38 37 37 37 37 37 36 36 36 35 35 35 35 34 32 34 32 31 30 29 29 29 29 29 29 28 30 30
Wind_Direction
172 169 163 161 164 166 171 168 153 129 111 101 97 79 63 60 60 66 70 73 79 75 66 65 58 55 53 49 50 54 50 44 47
172 171 171 170 175 176 186 193 186 155 118 105 97 93 79 49 50 50 57 61 67 77 73 65 63 55 52 51 50 48 54 52 55
186 179 175 174 180 188 189 197 189 177 130 91 82 64 72 76 61 55 56 54 51 63 72 76 71 64 56 53 47 48 47 56 59
195 192 191 190 185 185 185 193 199 170 90 62 54 52 42 39 43 44 52 52 34 37 51 78 74 74 69 56 56 57 46 51 63
207 201 202 204 204 200 195 197 197 159 127 93 62 52 40 24 30 21 19 25 46 21 27 58 71 72 83 76 63 55 54 57 60
210 212 212 212 210 208 208 200 189 170 148 113 77 42 38 34 16 10 16 6 355 24 15 347 51 55 52 80 81 72 58 55 61
214 215 216 217 216 214 209 206 197 182 169 143 1 348 360 7 15 6 3 8 0 346 347 348 2 11 17 19 49 76 71 60 61
220 222 220 219 218 221 220 215 215 210 209 220 266 302 319 319 316 344 354 359 3 1 356 352 344 346 347 354 350 16 40 63 64
226 226 228 224 223 222 223 222 222 222 224 244 260 269 281 290 281 286 301 328 351 356 2 0 356 343 335 328 342 342 351 357 31
227 234 238 230 227 226 223 225 231 234 243 251 259 267 276 280 275 264 267 271 294 321 339 346 350 341 336 329 324 329 335 335 341
230 224 227 231 229 227 227 230 233 237 246 256 262 265 267 274 269 261 258 260 264 273 291 302 319 330 320 328 324 318 323 328 325
231 227 224 229 231 229 228 231 236 241 246 253 260 270 275 274 268 261 259 258 262 267 273 280 291 302 305 309 308 313 319 319 319
236 231 226 227 230 227 228 232 237 242 247 253 261 269 273 270 264 262 259 261 260 262 267 269 277 279 282 309 310 298 305 314 312
237 231 227 227 227 229 230 233 239 242 248 257 265 267 265 262 263 262 262 262 263 263 263 266 270 274 275 281 287 285 283 297 309
240 233 229 230 232 234 236 239 242 247 253 260 263 260 258 258 260 262 262 264 264 263 265 267 269 274 278 276 276 276 271 279 292
234 236 234 234 236 238 241 244 248 252 257 258 256 255 256 258 260 263 263 262 264 264 264 265 267 267 267 272 275 272 267 275 276
235 234 238 241 242 244 247 250 252 254 254 254 252 252 255 256 260 262 264 264 263 262 263 265 266 267 267 267 268 270 267 257 267
240 242 244 245 247 249 251 252 253 252 251 251 253 253 255 258 257 260 262 263 265 265 266 266 267 267 267 268 265 266 268 263 262
241 243 245 247 249 250 251 253 253 254 254 254 254 254 256 257 259 258 260 261 264 265 265 265 266 265 265 265 265 263 263 264 261
243 244 246 247 248 249 250 252 252 253 254 255 255 256 257 258 259 262 262 263 263 265 266 268 267 266 265 266 263 264 265 266 264